Regional Weather Roundup
Issued by NWS

Home | Current Version | Previous Version | Text Only | Print | Product List | Glossary On
Versions: 1 2 3 4 5 6 7 8 9 10 11 12 13 14 15 16 17 18 19 20 21 22 23 24 25 26 27 28 29 30 31 32 33 34 35 36 37 38 39 40 41 42 43 44 45 46 47 48 49 50
000
ASUS43 KLOT 050612
RWRIL

ILLINOIS REGIONAL WEATHER ROUNDUP
NATIONAL WEATHER SERVICE CHICAGO/ROMEOVILLE IL
100 AM CDT TUE MAY 05 2015

NOTE: "FAIR" INDICATES FEW OR NO CLOUDS BELOW 12,000 FEET WITH NO
SIGNIFICANT WEATHER AND/OR OBSTRUCTIONS TO VISIBILITY.

* THESE STATIONS ARE NOT UNDER NWS QUALITY CONTROL. THEY ALSO MAY NOT
  REPORT WEATHER SUCH AS PRECIPITATION OR FOG.

ILZ001-002-007-009-015-016-024-050700-
NORTHWEST ILLINOIS

CITY           SKY/WX    TMP DP  RH WIND       PRES   REMARKS
MOLINE         LGT RAIN  63  61  93 E12       30.11R FOG
6HR MIN TEMP:  63; 6HR MAX TEMP:  68; 6HR PCP:  0.24;

STERLING*      CLOUDY    55  52  88 E14       30.15S
SAVANNA*       CLOUDY    57  55  91 NE10      30.14S
$$

ILZ003-004-008-010-011-017-018-050700-
NORTH CENTRAL ILLINOIS

CITY           SKY/WX    TMP DP  RH WIND       PRES   REMARKS
ROCKFORD       RAIN      51  46  83 E7        30.20F
6HR MIN TEMP:  51; 6HR MAX TEMP:  72; 6HR PCP:  0.39;

FREEPORT*      LGT RAIN  50  46  88 E10       30.19F
ROCHELLE*      RAIN      51  50  93 NE14      30.16F
DE KALB*       DRIZZLE   49  45  85 NE13      30.18F
PERU*          CLOUDY    59  56  91 E14       30.13F
$$

ILZ005-006-012>014-019>023-050700-
NORTHEAST ILLINOIS

CITY           SKY/WX    TMP DP  RH WIND       PRES   REMARKS
CHICAGO-OHARE  CLOUDY    56  38  50 NW5       30.18R
6HR MIN TEMP:  55; 6HR MAX TEMP:  62;

CHICAGO-MIDWAY CLOUDY    60  35  39 E6        30.17S
6HR MIN TEMP:  57; 6HR MAX TEMP:  62;

AURORA         CLOUDY    54  45  71 NE8       30.17F
6HR MIN TEMP:  53; 6HR MAX TEMP:  69; 6HR PCP:  0.18;

LANSING*       MOCLDY    54  46  75 NE6       30.17S
JOLIET*        LGT RAIN  58  54  86 E5        30.17F
WAUKEGAN       CLOUDY    51  37  58 CALM      30.19S
6HR MIN TEMP:  47; 6HR MAX TEMP:  52;

DUPAGE AIRPORT LGT RAIN  54  45  71 NE5       30.18F
6HR MIN TEMP:  54; 6HR MAX TEMP:  65; 6HR PCP:  0.02;

KANKAKEE*      CLOUDY    62  60  96 SE3       30.19R
WHEELING       CLOUDY    54  37  52 NE6       30.19S
6HR MIN TEMP:  52; 6HR MAX TEMP:  58;

MORRIS*        LGT RAIN  58  54  85 NE3       30.13S
ROMEOVILLE*    LGT RAIN  55  49  80 E9        30.17F
NORTHERLY ISL    N/A     52  39  61 N5          N/A
$$

LMZ740>746-050700-
SOUTHERN LAKE MICHIGAN

STATION/POSITION SKY/WX   TEMP    WIND        PRES    VSBY  WAVE
                          AIR SEA DIR/SP/G                  HT/PER
                          (F)     (DEG/KT/KT) (MB)    (MI)  (FT/S)
HARRISON CRIB              49     360/  3/  5   N/A
BURNHAM HARBOR             52     360/  4/  6   N/A
CALUMET HARBOR             50     360/  3/  6   N/A
BURNS HARBOR               53      60/  8/  9 1022.4R
MICHIGAN CITY              53      40/ 10/ 12   N/A
MICHIGAN CITY 6N           52 50   90/  4/  6   N/A           1
ST. JOSEPH                 54 50   50/  6/  8   N/A           0
$$

ILZ025>027-034>036-040-047-049-050-058-095>099-050700-
WEST-CENTRAL ILLINOIS

CITY           SKY/WX    TMP DP  RH WIND       PRES   REMARKS
QUINCY         CLOUDY    69  60  73 S7        30.08R
GALESBURG*     TSTM      64  62  93 CALM      30.12R
MACOMB*        CLOUDY    65  63  94 NW5G23    30.12F
JACKSONVILLE*  CLOUDY    73  57  57 S8        30.09S
PITTSFIELD*    CLOUDY    71  58  62 S7        30.11R
$$

ILZ028>032-037-038-041>044-048-051>054-059>061-050700-
CENTRAL ILLINOIS

CITY           SKY/WX    TMP DP  RH WIND       PRES   REMARKS
PONTIAC        CLOUDY    62  62  98 E14       30.14F FOG
BLOOMINGTON    CLOUDY    64  62  93 E8        30.13F
DECATUR        CLOUDY    66  62  87 SE8       30.14S
PEORIA         CLOUDY    66  62  87 E5        30.10S FOG
6HR MIN TEMP:  66; 6HR MAX TEMP:  74; 6HR PCP:  0.13;

LACON*         CLOUDY    64  61  91 E9G16     30.10F FOG
LINCOLN*       CLOUDY    65  60  84 CALM      30.09S
SPRINGFIELD    CLOUDY    70  58  65 S9        30.10F
6HR MIN TEMP:  68; 6HR MAX TEMP:  80;

TAYLORVILLE    CLOUDY    70  54  56 S13       30.12S
$$

ILZ033-039-045-046-055>057-062-063-050700-
EAST-CENTRAL ILLINOIS

CITY           SKY/WX    TMP DP  RH WIND       PRES   REMARKS
CHAMPAIGN      CLOUDY    65  60  84 NE6       30.15F
DANVILLE*      CLOUDY    62  59  91 SE7       30.12S
RANTOUL*       RAIN      66  62  89 N6        30.17S
MATTOON        MOCLDY    70  55  59 S8        30.14R
PARIS*         MOCLDY    63  59  87 SE7       30.16R
$$

ILZ079-100>102-050700-
SOUTHWEST ILLINOIS

CITY           SKY/WX    TMP DP  RH WIND       PRES   REMARKS
ALTON          MOCLDY    70  50  49 S9        30.14R
BELLEVILLE     MOCLDY    67  57  71 VRB3      30.13R
CAHOKIA*       MOCLDY    71  54  54 S3        30.13R
SPARTA*        PTCLDY    69  53  57 S8        30.17R
$$

ILZ064>066-069>071-074>076-080>082-084>086-088>090-092>094-050700-
SOUTH-CENTRAL ILLINOIS

CITY           SKY/WX    TMP DP  RH WIND       PRES   REMARKS
CARBONDALE     CLEAR     62  53  72 S7        30.17S
6HR MIN TEMP:  60; 6HR MAX TEMP:  78;

CAIRO*         CLEAR     65  54  67 CALM      30.19R
EFFINGHAM*     PTCLDY    70  51  51 S8        30.17S
MARION         CLEAR     64  55  72 S6        30.19S
MT. VERNON     CLEAR    N/A N/A N/A S7        30.17S
CENTRALIA*     PTCLDY    66  53  62 S9        30.16R
SALEM*         PTCLDY    71  55  56 S10       30.16S
METROPOLIS*    CLEAR     61  56  82 CALM      30.19S
$$

ILZ067-068-072-073-078-083-087-091-050700-
SOUTHEAST ILLINOIS

CITY           SKY/WX    TMP DP  RH WIND       PRES   REMARKS
LAWRENCEVILLE  PTCLDY    63  56  78 S7        30.18R
FLORA*         PTCLDY    65  55  70 S7        30.17R
FAIRFIELD*     CLEAR     66  56  70 S6        30.17R
HARRISBURG*    CLEAR     62  57  83 CALM      30.20R
ROBINSON*      PTCLDY    68  56  64 S9        30.17S
CARMI*         CLEAR     67  52  59 S9        30.18S
$$

ABBREVIATIONS USED IN REMARKS
   TC - TEMPERATURE IN CELSIUS
  WCI - WIND CHILL INDEX
   HX - HEAT INDEX
  VSB - VISIBILITY
$$



USA.gov is the U.S. government's official web portal to all federal, state and local government web resources and services.